Location: Dittelspoint
(48.7198°N, 10.7214°E)
Time: 11:08:36
(UTC+00:00)

SAR-Lupe-2 - Pass Details

Date: 09 April 2020
Orbit: 481 x 485 km, 98.1° (Epoch: 20 May)

Event Time Altitude Azimuth Distance (km) Brightness Sun altitude
Rises 20:15:01 0° 12° (NNE) 2,556 7.6 -20.5°
Reaches altitude 10° 20:17:05 10° 11° (N) 1,671 6.6 -20.8°
Maximum altitude 20:20:40 74° 286° (WNW) 506 3.6 -21.2°
Enters shadow 20:21:21 55° 220° (SW) 588 3.8 -21.3°
